Paynesville, MN

10:45 PM CDT on August 27, 2016 (GMT -0500)
Paynesville

Weather History for KPEX - October, 2013

Change the Weather History Date:

Monday, October 7, 2013

  Actual Average (KLJF) Record (KLJF)
Temperature  
Mean Temperature 51 °F -  
Max Temperature 65 °F 62 °F 85 °F (1980)
Min Temperature 37 °F 38 °F 20 °F (1976)
Degree Days  
Heating Degree Days 14    
Growing Degree Days 1 (Base 50)    
Moisture  
Dew Point 39 °F    
Average Humidity 68    
Maximum Humidity 97    
Minimum Humidity 31    
Precipitation  
Precipitation 0.00 in - - ()
Sea Level Pressure  
Sea Level Pressure 29.93 in    
Wind  
Wind Speed 3 mph (SW)    
Max Wind Speed 9 mph    
Max Gust Speed -    
Visibility 9 miles    
Events Snow    
Averages and records for this station are not official NWS values.
T = Trace of Precipitation, MM = Missing Value Source: NWS Daily Summary

Daily Weather History Graph

Daily Weather History Graph

Search for Another Location

Airport or City:

Trip Planner

Search our weather history database for the weather conditions in past years. The results will help you decide how hot, cold, wet, or windy it might be!

Date:

Astronomy

Oct. 07, 2013 Rise Set
Actual Time 7:25 AM CDT 6:47 PM CDT
Civil Twilight 6:55 AM CDT 7:17 PM CDT
Nautical Twilight 6:21 AM CDT 7:51 PM CDT
Astronomical Twilight 5:46 AM CDT 8:25 PM CDT
Moon 10:24 AM CDT (10/7) 8:23 PM CDT (10/7)
Length of Visible Light 12h 21m
Length of Day
11h 22m
Waxing Crescent, 9% of the Moon is Illuminated
Oct 7
Waxing Crescent
Oct 11
First Quarter
Oct 18
Full
Oct 26
Last Quarter
Nov 3
New

Hourly Weather History & Observations

Time (CDT) Temp. Windchill Dew Point Humidity Pressure Visibility Wind Dir Wind Speed Gust Speed Precip Events Conditions
12:13 AM 42.6 °F 39.9 °F 39.6 °F 89% 29.87 in 5.0 mi West 4.6 mph - N/A   Unknown
12:33 AM 43.2 °F 40.5 °F 40.1 °F 89% 29.86 in 7.0 mi WSW 4.6 mph - N/A   Unknown
12:53 AM 44.1 °F 41.5 °F 41.0 °F 89% 29.86 in 7.0 mi WSW 4.6 mph - N/A   Unknown
1:13 AM 44.6 °F 42.2 °F 41.2 °F 88% 29.86 in 5.0 mi West 4.6 mph - N/A   Unknown
1:33 AM 43.7 °F 41.1 °F 40.8 °F 90% 29.85 in 7.0 mi West 4.6 mph - N/A   Unknown
1:53 AM 42.8 °F 40.1 °F 40.1 °F 90% 29.85 in 7.0 mi West 4.6 mph - N/A   Unknown
2:12 AM 42.8 °F 40.1 °F 40.1 °F 90% 29.85 in 7.0 mi West 4.6 mph - N/A   Unknown
2:33 AM 42.4 °F 38.8 °F 39.6 °F 90% 29.85 in 7.0 mi West 5.8 mph - N/A   Unknown
2:53 AM 41.5 °F 38.6 °F 39.4 °F 92% 29.85 in 10.0 mi WSW 4.6 mph - N/A   Unknown
3:12 AM 41.2 °F 38.2 °F 39.0 °F 92% 29.85 in 7.0 mi West 4.6 mph - N/A   Unknown
3:33 AM 40.1 °F 36.9 °F 38.3 °F 93% 29.85 in 10.0 mi West 4.6 mph - N/A   Unknown
3:52 AM 41.0 °F 38.0 °F 38.7 °F 91% 29.86 in 10.0 mi WSW 4.6 mph - N/A   Unknown
4:13 AM 39.7 °F 36.5 °F 37.8 °F 93% 29.86 in 10.0 mi WSW 4.6 mph - N/A   Unknown
4:33 AM 39.6 °F 36.3 °F 37.8 °F 93% 29.86 in 10.0 mi West 4.6 mph - N/A   Unknown
4:53 AM 38.5 °F 35.0 °F 36.9 °F 94% 29.86 in 10.0 mi West 4.6 mph - N/A   Unknown
5:13 AM 38.5 °F 35.0 °F 37.4 °F 96% 29.87 in 10.0 mi WSW 4.6 mph - N/A   Unknown
5:33 AM 38.8 °F 36.5 °F 37.4 °F 95% 29.87 in 10.0 mi WSW 3.5 mph - N/A   Unknown
5:53 AM 37.8 °F 35.3 °F 36.5 °F 95% 29.88 in 10.0 mi WSW 3.5 mph - N/A Snow Light Snow
6:12 AM 37.8 °F - 36.7 °F 96% 29.89 in 10.0 mi Calm Calm - N/A   Clear
6:33 AM 37.4 °F 33.8 °F 36.1 °F 95% 29.89 in 10.0 mi West 4.6 mph - N/A   Clear
6:53 AM 38.3 °F 34.8 °F 37.2 °F 96% 29.90 in 10.0 mi WSW 4.6 mph - N/A   Clear
7:13 AM 37.6 °F 33.1 °F 36.5 °F 96% 29.91 in 10.0 mi WSW 5.8 mph - N/A   Clear
7:32 AM 37.9 °F 34.4 °F 37.0 °F 97% 29.92 in 10.0 mi WSW 4.6 mph - N/A   Clear
7:53 AM 38.3 °F 35.9 °F 37.4 °F 97% 29.92 in 10.0 mi West 3.5 mph - N/A   Clear
8:13 AM 39.7 °F - 39.0 °F 97% 29.93 in 10.0 mi Calm Calm - N/A   Clear
8:32 AM 41.4 °F - 40.3 °F 96% 29.94 in 10.0 mi Calm Calm - N/A   Clear
8:53 AM 43.5 °F - 41.5 °F 93% 29.94 in 10.0 mi Calm Calm - N/A   Clear
9:13 AM 46.4 °F - 42.8 °F 87% 29.95 in 10.0 mi Calm Calm - N/A   Clear
9:32 AM 49.3 °F - 43.9 °F 82% 29.96 in 10.0 mi Calm Calm - N/A   Clear
9:53 AM 52.7 °F - 43.3 °F 70% 29.96 in 7.0 mi Calm Calm - N/A   Clear
10:12 AM 55.2 °F - 41.9 °F 61% 29.97 in 5.0 mi Calm Calm - N/A   Haze
10:33 AM 56.5 °F - 42.3 °F 59% 29.97 in 4.0 mi Calm Calm - N/A   Haze
10:52 AM 58.3 °F - 39.6 °F 50% 29.97 in 5.0 mi Calm Calm - N/A   Haze
11:13 AM 59.5 °F - 38.1 °F 45% 29.97 in 7.0 mi North 4.6 mph - N/A   Clear
11:32 AM 60.3 °F - 36.3 °F 41% 29.97 in 10.0 mi Calm Calm - N/A   Clear
11:52 AM 61.3 °F - 34.5 °F 37% 29.98 in 10.0 mi Calm Calm - N/A   Clear
12:13 PM 61.2 °F - 35.4 °F 38% 29.98 in 10.0 mi Calm Calm - N/A   Clear
12:33 PM 61.7 °F - 36.7 °F 39% 29.98 in 10.0 mi Calm Calm - N/A   Clear
12:53 PM 61.9 °F - 34.3 °F 36% 29.98 in 7.0 mi Calm Calm - N/A   Clear
1:12 PM 62.2 °F - 36.1 °F 38% 29.97 in 7.0 mi Calm Calm - N/A   Clear
1:33 PM 63.3 °F - 37.2 °F 38% 29.97 in 5.0 mi Calm Calm - N/A   Haze
1:53 PM 64.0 °F - 36.5 °F 36% 29.97 in 5.0 mi Calm Calm - N/A   Haze
2:13 PM 63.7 °F - 36.3 °F 36% 29.96 in 5.0 mi Calm Calm - N/A   Haze
2:32 PM 64.9 °F - 36.0 °F 34% 29.97 in 7.0 mi WNW 3.5 mph - N/A   Clear
2:53 PM 64.0 °F - 36.1 °F 36% 29.96 in 10.0 mi Calm Calm - N/A   Clear
3:13 PM 65.7 °F - 34.9 °F 32% 29.96 in 7.0 mi Calm Calm - N/A   Clear
3:33 PM 65.7 °F - 34.2 °F 31% 29.95 in 10.0 mi Calm Calm - N/A   Clear
3:53 PM 64.9 °F - 36.1 °F 34% 29.95 in 10.0 mi Calm Calm - N/A   Clear
4:13 PM 65.5 °F - 36.0 °F 34% 29.95 in 10.0 mi SW 5.8 mph - N/A   Clear
4:32 PM 65.8 °F - 36.7 °F 34% 29.95 in 10.0 mi SSW 6.9 mph - N/A   Clear
4:53 PM 64.9 °F - 35.6 °F 34% 29.95 in 10.0 mi South 4.6 mph - N/A   Clear
5:13 PM 64.9 °F - 35.6 °F 34% 29.95 in 10.0 mi Calm Calm - N/A   Clear
5:33 PM 64.8 °F - 35.8 °F 34% 29.94 in 10.0 mi Calm Calm - N/A   Clear
5:53 PM 64.4 °F - 35.1 °F 34% 29.94 in 10.0 mi Calm Calm - N/A   Clear
6:12 PM 63.5 °F - 36.5 °F 37% 29.94 in 10.0 mi Calm Calm - N/A   Clear
6:33 PM 60.6 °F - 39.9 °F 46% 29.94 in 10.0 mi Calm Calm - N/A   Clear
6:53 PM 56.5 °F - 42.1 °F 59% 29.94 in 10.0 mi Calm Calm - N/A   Clear
7:12 PM 54.3 °F - 41.7 °F 62% 29.94 in 10.0 mi Calm Calm - N/A   Clear
7:33 PM 51.3 °F - 42.1 °F 71% 29.95 in 10.0 mi Calm Calm - N/A   Clear
7:53 PM 50.7 °F - 43.0 °F 75% 29.95 in 10.0 mi Calm Calm - N/A   Clear
8:13 PM 49.3 °F - 43.3 °F 80% 29.95 in 10.0 mi Calm Calm - N/A   Clear
8:33 PM 48.2 °F - 44.4 °F 87% 29.95 in 10.0 mi Calm Calm - N/A   Clear
8:52 PM 48.2 °F - 44.2 °F 86% 29.95 in 10.0 mi Calm Calm - N/A   Clear
9:13 PM 47.5 °F - 43.0 °F 84% 29.94 in 10.0 mi Calm Calm - N/A   Clear
9:33 PM 48.2 °F - 41.9 °F 79% 29.95 in 10.0 mi SE 3.5 mph - N/A   Clear
9:53 PM 52.3 °F - 43.5 °F 72% 29.94 in 10.0 mi SE 5.8 mph - N/A   Clear
10:12 PM 53.6 °F - 41.0 °F 62% 29.94 in 7.0 mi SE 6.9 mph - N/A   Clear
10:33 PM 53.8 °F - 40.5 °F 61% 29.94 in 10.0 mi SSE 8.1 mph - N/A   Clear
10:53 PM 53.6 °F - 41.0 °F 62% 29.94 in 10.0 mi SE 8.1 mph - N/A   Clear
11:12 PM 53.6 °F - 40.8 °F 62% 29.94 in 10.0 mi SE 8.1 mph - N/A   Clear
11:33 PM 53.2 °F - 41.0 °F 63% 29.94 in 7.0 mi SE 9.2 mph - N/A   Clear
11:52 PM 52.7 °F - 40.8 °F 64% 29.93 in 10.0 mi SE 9.2 mph - N/A   Clear